Regional Weather Roundup
Issued by NWS Green Bay, WI

Home | Current Version | Previous Version | Text Only | Print | Product List | Glossary On
Versions: 1 2 3 4 5 6 7 8 9 10 11 12 13 14 15 16 17 18 19 20 21 22 23 24 25 26 27 28 29 30 31 32 33 34 35 36 37 38 39 40 41 42 43 44 45 46 47 48 49 50
000
ASUS43 KGRB 171759
RWRGRB

NORTH-CENTRAL AND NORTHEAST WISCONSIN REGIONAL WEATHER ROUNDUP
NATIONAL WEATHER SERVICE GREEN BAY WI
100 PM CDT WED SEP 17 2014

WIZ005-009-010>012-018-019-171900-
NORTH CENTRAL WISCONSIN

CITY           SKY/WX    TMP DP  RH WIND       PRES   REMARKS
IRONWOOD         N/A     57  48  72 N12       29.95R
MANITOWISH WTR NOT AVBL
ARBOR VITAE    NOT AVBL
EAGLE RIVER    NOT AVBL
LAND O LAKES   NOT AVBL
RHINELANDER    SUNNY     65  46  50 W12       29.96S
PHILLIPS       NOT AVBL
ANTIGO         NOT AVBL
TOMAHAWK       NOT AVBL
MERRILL        NOT AVBL
$$

WIZ013-073-171900-
NORTHEAST WISCONSIN

CITY           SKY/WX    TMP DP  RH WIND       PRES   REMARKS
IRON MOUNTAIN  SUNNY     67  43  41 VRB7      29.92S
MARINETTE      MOSUNNY   66  46  48 NW6       29.93S
$$

WIZ017-030-035>037-045-171900-
CENTRAL WISCONSIN

CITY           SKY/WX    TMP DP  RH WIND       PRES   REMARKS
MEDFORD        NOT AVBL
WAUSAU         SUNNY     67  48  50 W9        29.95F
MOSINEE        NOT AVBL
MARSHFIELD     PTSUNNY   66  50  56 W5        29.98S
WISC RAPIDS      N/A     68  48  48 SW8       29.99F
STEVENS POINT  NOT AVBL
WAUPACA        NOT AVBL
SHAWANO        NOT AVBL
CLINTONVILLE   NOT AVBL
$$

WIZ038-039-048-051-171900-
FOX VALLEY

CITY           SKY/WX    TMP DP  RH WIND       PRES   REMARKS
NWS GREEN BAY  MOSUNNY   69  48  47 W13       29.96F
APPLETON       MOSUNNY   66  46  48 W9        29.98F
OSHKOSH        MOSUNNY   67  49  52 W9        29.98S
FOND DU LAC    MOSUNNY   67  46  47 SW10G16   29.99S
$$

WIZ022-050-052-171900-
EAST CENTRAL WISCONSIN

CITY           SKY/WX    TMP DP  RH WIND       PRES   REMARKS
STURGEON BAY   SUNNY     64  46  52 W10       29.96S
MANITOWOC      NOT AVBL
SHEBOYGAN      MOSUNNY   67  45  45 W9        29.98F
$$

LMZ563-521-522-541>543-171900-
LAKESHORE

STATION/POSITION TIME  TEMP    WIND        PRES    VSBY  WAVE
                       AIR SEA DIR/SP/G                  HT/PER
                 (UTC) (F)     (DEG/KT/KT) (MB)    (MI)  (FT/S)
SHEBOYGAN LKSHOR 1700   63 49  280/  5/  6 1015.7F
KEWAUNEE LKSHORE 1700   66     280/ 10/ 13 1013.8F
NORTHPORT PIER   1700   65     240/  4/  8 1013.5F
N MID LAKE BUOY  1700   58 58  230/ 10/ 10 1014.2F         1/ 4
S GREEN BAY BUOY 1700   60     VRB 10/ 12  1015.2F
CHAMBERS ISLAND  1700   61     150/  4/  8 1014.2F
MENOMINEE LKSHOR 1700   60     160/ 10/ 13 1014.2F
$$


USA.gov is the U.S. government's official web portal to all federal, state and local government web resources and services.